[Date Prev][Date Next][Thread Prev][Thread Next] - [Date Index][Thread Index][Author Index]
2 Line ISS Keps 9-24
- Subject: [sarex] 2 Line ISS Keps 9-24
- From: "Dr Dave Larsen PhD" <doc@xxxxxxxxxxx>
- Date: Fri, 23 Sep 2005 19:48:38 -0700
ISS
1 25544U 98067A 05266.76622569 .00021449 00000-0 15588-3 0 4166
2 25544 051.6420 116.0848 0001880 083.1881 013.4256 15.73307614391195
----
Via the sarex mailing list at AMSAT.ORG courtesy of AMSAT-NA.
To unsubscribe, send "unsubscribe sarex" to Majordomo@amsat.org
AMSAT Home